LEMUR-2-SAOIRSEDH5GUO (47453 NORAD) Tracking and Keplerian Element Data

This shows tracking and keplerian element data for the satellite.

Feedback or suggestion? Click here.




ElementValue
Catalog47453
NameLEMUR-2-SAOIRSEDH5GUO
Epoch Orbit1256
Epoch Day105.71224091
Epoch Year2021
RAAN168.0866
Inclination97.5022
Eccentricity0.0009432
Argument of Perigee328.1659
Mean Anonmoly31.9001
Mean Motion15.12590604
Decay Rate1.897E-05
L11 47453U 21006AS 21105.71224091 .00001897 00000-0 11233-3 0 9995
L22 47453 97.5022 168.0866 0009432 328.1659 31.9001 15.12590604 12568

Live tracking and technical data element details for LEMUR-2-SAOIRSEDH5GUO (NORAD 47453). LEMUR-2-SAOIRSEDH5GUO can be tracked NOW for your location showing map with azimuth and elevation plus other details from your city location.

Track the satellite on the map from your city or location and see movement details for azimuth, elevation, latitude, longitude, range, height, and movement on the map or in text.







IsCatalogInMostPopularTable: catalog: 47453, numindb: 13
Update: records affected: 1



GetName: 47453 LEMUR-2-SAOIRSEDH5GUO

Hit Count: updated at: Fri, 16 Apr 2021 11:52:52 GMT